TimeCST,TemperatureF,Dew PointF,Humidity,Sea Level PressureIn,VisibilityMPH,Wind Direction,Wind SpeedMPH,Gust SpeedMPH,PrecipitationIn,Events,Conditions,WindDirDegrees,DateUTC
12:06 AM,30.2,21.2,69,30.07,10.0,West,5.8,-,N/A,,Overcast,270,2013-01-06 06:06:00
12:37 AM,30.2,21.2,69,30.07,10.0,West,6.9,-,N/A,,Overcast,270,2013-01-06 06:37:00
12:55 AM,28.9,21.9,75,30.12,10.0,West,11.5,17.3,N/A,,Mostly Cloudy,280,2013-01-06 06:55:00
1:08 AM,28.4,23.0,80,30.08,10.0,West,11.5,-,N/A,,Mostly Cloudy,280,2013-01-06 07:08:00
1:55 AM,28.9,21.9,75,30.13,10.0,WNW,17.3,25.3,N/A,,Overcast,290,2013-01-06 07:55:00
2:55 AM,27.0,19.0,72,30.15,10.0,NW,10.4,17.3,N/A,,Overcast,310,2013-01-06 08:55:00
3:55 AM,27.0,21.0,78,30.18,7.0,NW,11.5,20.7,N/A,,Overcast,320,2013-01-06 09:55:00
4:15 AM,26.6,19.4,74,30.15,8.0,NW,12.7,-,N/A,,Overcast,310,2013-01-06 10:15:00
4:55 AM,25.0,19.0,78,30.20,7.0,NW,10.4,-,N/A,,Overcast,310,2013-01-06 10:55:00
5:55 AM,24.8,17.6,74,30.19,7.0,NW,13.8,19.6,N/A,,Overcast,310,2013-01-06 11:55:00
6:55 AM,21.0,16.0,81,30.26,7.0,WNW,13.8,-,N/A,,Overcast,290,2013-01-06 12:55:00
7:24 AM,19.4,12.2,74,30.24,9.0,WNW,15.0,21.9,N/A,,Scattered Clouds,290,2013-01-06 13:24:00
7:55 AM,18.0,12.0,78,30.30,9.0,WNW,10.4,-,N/A,,Clear,300,2013-01-06 13:55:00
8:55 AM,19.9,14.0,78,30.32,10.0,WNW,12.7,-,N/A,,Clear,300,2013-01-06 14:55:00
9:55 AM,23.0,15.1,72,30.34,10.0,WNW,11.5,-,N/A,,Clear,290,2013-01-06 15:55:00
10:55 AM,26.1,17.1,69,30.35,10.0,West,8.1,-,N/A,,Clear,270,2013-01-06 16:55:00
11:55 AM,28.9,16.0,58,30.35,10.0,WNW,10.4,-,N/A,,Clear,290,2013-01-06 17:55:00
12:55 PM,30.9,16.0,54,30.32,10.0,West,6.9,-,N/A,,Clear,260,2013-01-06 18:55:00
1:55 PM,33.1,16.0,50,30.32,10.0,West,10.4,-,N/A,,Clear,270,2013-01-06 19:55:00
2:55 PM,34.0,16.0,48,30.34,10.0,West,6.9,-,N/A,,Clear,270,2013-01-06 20:55:00
3:55 PM,34.0,16.0,48,30.35,10.0,West,8.1,-,N/A,,Clear,280,2013-01-06 21:55:00
4:55 PM,30.9,17.1,57,30.35,10.0,SW,5.8,-,N/A,,Clear,230,2013-01-06 22:55:00
5:55 PM,28.9,17.1,61,30.36,10.0,WSW,4.6,-,N/A,,Clear,240,2013-01-06 23:55:00
6:55 PM,26.1,17.1,69,30.38,10.0,SW,4.6,-,N/A,,Clear,220,2013-01-07 00:55:00
7:55 PM,24.1,17.1,75,30.38,10.0,SW,3.5,-,N/A,,Clear,230,2013-01-07 01:55:00
9:55 PM,23.0,17.1,78,30.36,10.0,SSW,5.8,-,N/A,,Clear,210,2013-01-07 03:55:00
10:55 PM,23.0,17.1,78,30.35,10.0,SSW,5.8,-,N/A,,Clear,200,2013-01-07 04:55:00
11:55 PM,21.9,17.1,82,30.34,10.0,SSW,4.6,-,N/A,,Clear,200,2013-01-07 05:55:00